Theta_e
340 331 331 335 338 342 343 342 337 339 338 337 337 337 338 337 337 335 334 334 334 335 337 339 341 333 324 319 321 333 336 337 337 338 337 332 328 333 335 336 337 326 331
340 333 331 334 340 343 340 338 340 338 337 338 337 337 336 337 338 338 335 337 341 341 340 339 338 330 322 321 317 321 324 324 323 328 330 329 327 330 334 332 332 324 326
340 335 330 334 341 343 340 340 338 337 337 338 338 337 336 335 335 339 339 338 339 341 340 340 339 337 334 334 331 319 313 319 322 326 335 332 318 323 332 333 330 333 332
340 339 332 336 340 342 340 338 337 337 337 338 337 337 336 337 333 332 335 339 339 339 339 338 337 329 331 328 324 320 325 331 332 332 333 332 323 314 316 320 328 332 333
340 339 332 337 339 338 337 336 336 336 336 335 336 337 337 336 336 333 333 334 335 338 338 338 328 327 325 324 326 325 324 327 329 330 333 332 331 316 317 318 332 331 337
341 335 333 334 336 337 336 335 334 335 334 333 332 333 334 334 336 335 330 331 333 338 336 329 326 327 331 332 330 329 329 331 332 334 330 328 334 319 317 318 328 327 327
340 334 332 335 335 335 335 334 334 334 333 333 333 332 330 330 334 335 327 321 321 326 324 323 323 327 331 330 329 327 328 328 331 334 333 333 332 330 323 319 320 320 320
340 338 335 333 335 335 335 335 335 334 333 331 331 331 331 330 328 331 327 320 321 321 321 324 326 329 330 330 329 325 325 326 328 333 335 336 335 333 332 331 331 329 328
343 340 338 335 334 334 333 333 333 332 331 330 329 329 328 328 327 324 325 320 320 325 324 326 328 329 330 329 326 322 321 320 324 331 333 337 335 333 332 331 330 330 330
342 341 341 338 337 334 332 331 330 329 328 328 328 327 330 332 330 336 326 323 321 319 322 326 328 328 327 323 318 316 317 316 321 326 332 335 333 329 326 323 328 331 331
344 343 343 342 341 339 332 330 330 329 329 331 329 331 338 341 339 340 334 325 322 321 320 319 318 318 317 317 318 326 326 324 325 327 326 327 326 324 323 320 319 321 325
345 345 343 344 343 342 340 335 337 339 339 340 340 336 339 335 335 336 329 321 321 321 320 321 320 324 320 325 330 328 328 330 328 326 326 326 325 324 325 324 320 319 320
342 344 342 343 344 343 342 339 341 340 339 336 337 338 338 336 337 335 334 334 336 335 332 334 335 334 334 335 333 334 335 334 333 333 333 330 332 332 332 332 330 329 326
341 343 344 342 344 343 342 337 339 336 336 338 338 337 340 337 336 335 334 336 333 333 336 333 336 336 336 335 337 337 336 336 336 335 332 333 334 333 333 334 334 331 331
337 339 340 342 341 341 340 336 341 339 341 338 338 335 338 339 337 336 337 338 338 338 339 339 339 339 338 338 338 337 338 337 337 337 337 337 336 335 335 335 335 335 335
335 338 338 342 340 341 343 341 341 339 338 336 334 333 334 337 338 338 338 338 337 337 337 337 338 338 338 338 338 338 338 338 338 337 338 338 338 338 337 336 335 335 335
337 339 341 340 339 341 340 338 336 336 334 331 329 327 328 330 332 333 334 334 333 333 333 332 333 333 335 336 336 336 337 336 337 337 339 338 338 336 333 334 336 334 333
340 337 335 336 337 335 334 332 331 331 327 325 323 323 323 324 328 328 328 326 326 326 324 323 323 325 326 327 325 324 321 323 328 330 334 336 330 327 323 315 319 320 311
335 333 331 331 331 329 329 329 328 324 321 319 317 317 318 318 320 320 320 318 317 317 314 314 315 315 315 316 315 313 314 319 318 324 321 322 318 314 310 309 309 309 309
329 326 325 326 325 327 326 323 322 319 317 314 314 314 313 313 315 314 312 312 312 311 310 309 310 311 313 312 312 312 311 312 321 317 317 312 312 310 308 308 308 309 307
322 319 319 322 324 326 323 321 319 319 315 312 311 310 310 309 309 310 309 309 310 309 309 309 310 310 312 310 310 310 314 314 315 314 312 310 309 307 307 306 308 306 308
320 317 318 320 321 321 318 318 315 314 313 311 308 308 307 307 308 308 309 308 308 309 308 308 310 310 312 310 309 311 312 316 308 312 309 309 306 305 305 307 304 307 307
320 318 316 315 315 314 314 314 313 311 310 309 307 307 306 307 307 307 308 308 308 308 309 308 309 309 311 310 309 309 310 310 309 310 309 308 306 305 304 302 305 305 306
322 318 315 314 313 312 313 312 311 310 310 308 307 306 306 306 306 307 307 307 308 308 308 308 307 308 308 308 308 308 308 308 309 309 307 307 304 302 302 302 303 304 302
324 321 317 314 314 312 313 314 314 310 308 307 306 306 305 305 305 306 306 307 307 307 306 306 306 306 306 306 307 306 305 306 305 306 305 303 302 301 300 302 301 301 303
317 318 317 316 313 312 312 311 310 308 307 306 306 306 305 305 305 306 306 306 305 305 306 305 304 305 305 304 304 303 304 304 303 302 301 301 299 299 299 299 299 300 299
Wind_Speed
19 21 17 15 14 12 9 15 17 15 15 16 15 14 13 12 11 12 10 11 10 10 10 9 9 9 12 13 14 15 15 15 16 16 15 16 16 15 14 9 11 9 11
23 21 18 17 16 13 15 16 16 16 16 15 14 13 12 12 12 11 10 9 8 10 9 9 11 12 14 14 16 15 14 12 12 11 11 14 13 11 13 15 15 9 9
22 21 19 18 17 16 18 16 13 14 15 14 13 12 12 12 11 10 9 8 8 9 9 11 12 12 13 15 15 16 15 14 10 10 13 11 10 8 8 7 7 8 8
24 20 20 20 18 17 18 16 14 13 12 13 14 13 13 12 11 10 8 9 9 7 10 11 11 12 12 14 13 14 13 10 5 3 5 5 8 7 6 6 6 6 6
25 22 21 20 19 18 18 17 14 13 13 12 13 13 13 11 12 11 10 9 9 9 10 9 11 12 13 12 11 10 7 3 1 2 3 10 6 7 5 6 5 3 4
25 21 21 20 20 18 17 16 16 15 13 12 11 12 12 12 11 10 11 10 10 10 10 10 11 11 10 9 7 6 5 5 9 5 5 6 2 6 4 3 1 1 1
24 21 21 19 19 18 16 15 14 14 13 13 12 11 11 10 10 10 9 9 10 11 10 10 10 8 6 6 6 6 7 9 12 13 5 8 4 5 4 3 1 2 2
25 18 18 17 16 16 15 14 13 12 11 11 11 11 10 9 9 9 9 9 10 10 10 9 7 5 2 2 4 6 9 11 10 9 4 9 4 5 3 3 3 4 4
25 20 16 15 15 14 13 12 11 10 9 8 9 9 9 9 9 8 8 8 8 8 8 6 5 3 1 2 4 6 7 8 8 8 5 9 5 3 4 4 4 5 6
25 19 17 12 13 12 12 10 9 9 8 7 8 8 8 10 9 8 8 5 4 4 4 4 4 4 5 6 6 6 8 10 8 11 5 5 2 3 6 8 8 8 8
20 20 19 15 13 10 10 10 8 8 8 8 9 6 2 2 3 5 3 2 1 2 3 3 3 5 7 8 8 7 8 9 7 12 9 5 3 7 11 13 13 12 13
16 15 15 14 15 16 13 8 10 8 6 4 4 4 2 2 4 5 1 1 1 0 3 2 3 5 8 8 12 10 9 8 10 10 13 15 7 10 14 17 17 16 17
18 16 15 14 12 15 15 11 15 12 11 8 5 1 2 2 3 4 5 4 2 3 3 3 6 6 6 6 9 8 10 11 14 16 18 10 13 16 17 18 17 17 17
25 23 18 15 10 8 9 7 13 12 7 5 10 5 2 6 3 0 3 5 6 10 5 7 10 7 8 12 12 11 11 11 12 15 19 18 21 19 21 19 17 18 18
21 18 15 16 13 11 6 4 12 13 10 9 11 3 4 9 3 5 7 9 11 9 12 11 11 11 13 11 14 13 12 13 17 17 18 18 21 20 21 20 20 16 15
20 20 17 16 11 8 1 9 11 11 10 9 4 3 4 7 2 6 11 11 9 10 15 14 16 16 17 18 18 18 17 17 18 20 20 20 19 14 14 17 18 18 17
15 21 17 17 14 12 11 13 14 13 9 8 7 8 9 6 6 7 8 7 8 8 9 10 12 12 16 18 18 17 17 18 18 18 16 19 17 17 23 12 14 16 14
17 17 15 14 14 12 13 13 12 11 9 7 6 5 9 7 8 6 9 6 9 8 7 9 11 15 13 14 14 15 17 16 15 17 16 13 22 22 19 20 17 13 22
17 16 15 13 14 14 13 12 10 10 7 7 7 8 9 9 11 8 7 10 10 11 11 10 10 14 14 16 17 17 16 14 13 13 23 19 21 23 26 27 23 22 23
17 13 13 14 14 15 16 15 12 12 11 9 8 8 10 10 11 11 10 12 9 10 14 15 14 12 15 19 18 17 14 7 10 18 20 25 24 26 28 28 28 24 26
16 14 14 15 15 15 16 15 14 14 12 14 13 11 9 12 10 12 12 10 14 14 15 15 17 12 16 23 15 15 13 16 25 22 22 26 26 27 27 26 23 27 24
17 15 16 18 19 19 14 14 14 15 13 13 12 13 11 13 13 12 13 13 14 14 16 16 18 15 16 21 15 10 5 4 21 24 23 24 29 27 27 23 28 23 24
20 19 18 20 20 18 16 19 18 15 16 15 13 12 12 13 13 14 13 14 14 14 15 17 18 17 16 18 23 11 4 3 15 12 19 23 29 25 26 32 24 25 24
22 19 19 19 19 16 18 16 19 20 16 15 14 12 13 13 14 13 15 15 15 14 17 15 16 17 18 18 14 19 15 14 3 5 17 20 27 29 28 29 27 26 31
21 24 22 20 17 17 18 16 13 18 18 15 15 13 13 14 15 14 15 15 14 15 14 14 17 18 19 18 18 18 18 16 20 6 4 22 24 25 27 24 28 27 25
19 19 20 20 17 15 15 16 15 18 18 17 15 14 13 13 13 14 13 13 14 13 13 16 16 18 19 19 19 18 18 13 14 11 6 15 18 20 23 27 26 25 31
Wind_Direction
106 110 109 107 95 83 82 114 121 112 113 113 108 107 104 97 92 91 102 107 98 103 100 102 105 89 87 89 91 101 99 95 91 93 96 96 101 99 89 84 88 88 90
114 113 109 108 105 103 103 110 114 108 110 107 102 104 104 98 98 94 98 98 101 91 95 96 94 94 93 95 92 97 101 100 101 105 107 98 97 99 90 87 115 89 85
115 110 111 112 109 109 110 110 105 104 108 106 101 100 97 98 103 108 106 124 101 93 98 101 104 100 100 96 93 94 100 109 116 125 116 85 98 105 111 100 77 86 85
119 112 115 117 119 114 111 111 110 108 106 105 103 97 96 90 91 102 118 116 105 102 102 103 113 111 105 98 94 98 110 107 114 152 202 152 98 99 113 112 90 92 85
116 118 118 121 121 119 116 114 110 105 101 97 94 96 100 94 86 88 98 99 111 101 104 114 112 108 102 92 87 91 102 96 351 314 29 102 122 79 99 118 81 83 123
112 117 120 123 123 120 117 115 112 109 103 98 94 94 101 104 99 94 98 106 112 115 116 118 115 111 98 81 70 56 30 358 336 326 162 136 113 35 62 88 108 224 281
113 118 123 126 125 123 120 117 113 109 105 102 98 98 98 100 96 95 95 105 110 121 124 123 122 114 86 62 44 25 6 347 349 359 173 158 135 37 45 49 25 310 308
117 124 123 130 129 126 125 123 120 116 111 106 101 97 97 101 101 101 106 112 116 121 127 136 135 130 96 32 13 6 3 354 352 6 58 155 129 59 26 357 331 321 323
129 126 121 131 136 132 130 129 127 123 116 108 102 98 96 93 93 99 105 110 122 132 144 158 166 184 238 310 332 343 343 343 352 359 314 176 146 54 357 332 319 321 316
126 129 139 139 135 136 136 136 132 126 119 108 97 98 105 102 102 90 100 89 124 148 173 203 227 259 282 295 307 319 324 314 305 326 305 159 140 337 323 314 309 308 308
121 134 147 145 146 140 138 135 129 120 117 111 100 96 78 97 102 117 81 11 151 183 205 230 273 282 292 289 269 286 301 311 317 325 337 288 290 316 317 312 303 296 292
143 143 155 151 157 155 154 139 137 120 104 118 97 39 323 127 117 163 30 60 133 298 232 211 276 296 277 291 291 259 291 306 315 293 281 257 277 307 313 309 301 295 294
163 164 163 161 164 180 173 165 169 166 147 148 159 295 49 176 189 233 229 191 206 274 239 267 277 282 286 297 305 304 305 314 305 310 320 302 312 308 306 306 300 295 293
164 166 167 165 184 209 168 179 148 136 122 170 132 144 356 302 196 30 257 192 255 236 170 267 268 270 255 277 258 262 271 272 283 290 294 303 297 294 297 298 300 293 292
160 155 160 165 187 186 134 193 95 114 104 80 81 65 18 20 31 13 342 359 21 16 356 352 339 334 335 300 300 288 279 286 283 282 282 289 301 301 296 290 293 297 302
152 147 167 146 152 160 171 140 105 94 94 76 101 100 81 56 49 351 357 17 11 15 354 345 339 339 330 330 320 327 311 309 307 297 305 303 304 313 336 334 319 313 321
128 127 137 130 152 133 121 105 107 100 107 91 72 54 44 42 56 40 22 18 350 3 347 344 339 332 335 333 329 319 325 323 324 318 311 310 329 349 23 10 5 6 9
118 110 114 136 140 136 128 115 115 107 113 104 83 88 81 72 72 59 56 40 39 20 6 14 355 354 349 342 342 332 322 316 318 320 333 40 53 37 42 27 34 34 18
130 129 126 142 150 145 140 139 138 125 116 93 84 73 54 62 75 53 70 56 40 44 23 20 12 5 354 355 339 322 320 319 344 26 53 53 44 36 20 13 12 3 2
124 129 145 157 156 156 149 144 144 132 123 107 89 75 75 69 91 68 55 65 45 47 27 26 21 21 18 357 341 323 306 314 62 42 50 31 39 24 15 7 6 3 351
125 139 149 156 160 160 149 136 125 129 115 95 84 79 81 80 76 86 59 71 56 44 40 34 24 24 31 11 356 348 360 101 59 52 47 32 23 11 8 5 4 352 2
146 150 150 148 143 136 123 124 125 127 124 119 103 87 81 78 78 73 78 60 66 52 44 40 37 32 36 33 12 338 7 18 21 40 43 29 18 11 0 2 346 5 357
154 156 151 151 151 146 154 139 132 133 129 126 110 91 80 78 75 78 74 77 65 63 52 43 45 34 26 37 44 45 14 7 327 355 17 15 10 7 359 351 359 354 358
153 158 155 155 151 160 151 150 148 150 153 122 116 110 95 85 81 74 76 71 68 62 58 48 49 47 44 34 38 39 38 19 354 336 342 358 359 356 350 352 352 355 344
150 157 157 155 156 155 158 170 175 124 125 126 124 118 100 87 78 75 77 75 71 70 66 62 55 51 50 43 38 33 30 21 22 2 323 344 347 349 348 349 350 350 348
154 151 152 155 152 158 154 151 150 140 141 138 141 127 112 95 83 79 75 79 79 77 71 66 60 56 53 49 44 37 32 36 19 16 340 341 336 334 336 342 342 340 343